Banff, Alberta

7:13 AM MDT on June 27, 2017 (GMT -0600)
Banff

Weather History for CWZG - February, 2014

Change the Weather History Date:

Saturday, February 8, 2014

  Actual Average Record
Temperature  
Mean Temperature -2 °F -  
Max Temperature 10 °F - - ()
Min Temperature -14 °F - - ()
Degree Days  
Heating Degree Days 67    
Moisture  
Dew Point -12 °F    
Average Humidity 68    
Maximum Humidity 85    
Minimum Humidity 38    
Precipitation  
Precipitation 0.00 in - - ()
Sea Level Pressure  
Sea Level Pressure 30.34 in    
Wind  
Wind Speed 3 mph ()    
Max Wind Speed 6 mph    
Max Gust Speed -    
T = Trace of Precipitation, MM = Missing Value Source: Averaged Metar Reports

Daily Weather History Graph

Daily Weather History Graph

Search for Another Location

Airport or City:

Trip Planner

Search our weather history database for the weather conditions in past years. The results will help you decide how hot, cold, wet, or windy it might be!

Date:

Astronomy

Feb. 08, 2014 Rise Set
Actual Time 8:07 AM MST 5:45 PM MST
Civil Twilight 7:32 AM MST 6:20 PM MST
Nautical Twilight 6:53 AM MST 7:00 PM MST
Astronomical Twilight 6:15 AM MST 7:38 PM MST
Moon 12:31 PM MST (2/8) 3:34 AM MST (2/8)
Length of Visible Light 10h 48m
Length of Day
9h 37m
Waxing Gibbous, 69% of the Moon is Illuminated
Feb 8
Waxing Gibbous
Feb 14
Full
Feb 22
Last Quarter
Mar 1
New
Mar 8
First Quarter

Hourly Weather History & Observations

Time (MST) Temp. Windchill Dew Point Humidity Pressure Visibility Wind Dir Wind Speed Gust Speed Precip Events Conditions
12:00 AM -0.9 °F - -6.3 °F 78% 30.19 in - NNE 2.3 mph - N/A   Unknown
1:00 AM -3.3 °F -13.7 °F -8.1 °F 80% 30.20 in - NNE 4.6 mph - N/A   Unknown
2:00 AM -2.2 °F - -6.5 °F 82% 30.19 in - ENE 2.3 mph - N/A   Unknown
3:00 AM -4.2 °F -14.8 °F -10.3 °F 75% 30.19 in - NNE 4.6 mph - N/A   Unknown
4:00 AM -6.9 °F -15.7 °F -11.4 °F 81% 30.22 in - ENE 3.5 mph - N/A   Unknown
5:00 AM -5.4 °F - -9.6 °F 82% 30.24 in - ENE 1.2 mph - N/A   Unknown
6:00 AM -9.2 °F - -13.4 °F 82% 30.28 in - WSW 1.2 mph - N/A   Unknown
7:00 AM -10.3 °F - -16.1 °F 76% 30.32 in - SW 2.3 mph - N/A   Unknown
8:00 AM -13.0 °F -22.7 °F -17.1 °F 82% 30.36 in - SSW 3.5 mph - N/A   Unknown
9:00 AM -14.8 °F - -19.5 °F 79% 30.41 in - Calm Calm - N/A   Unknown
10:00 AM -10.7 °F -20.0 °F -17.9 °F 71% 30.42 in - SW 3.5 mph - N/A   Unknown
11:00 AM -3.3 °F - -16.2 °F 54% 30.41 in - WSW 1.2 mph - N/A   Unknown
12:00 PM 3.2 °F - -15.3 °F 42% 30.38 in - Calm Calm - N/A   Unknown
1:00 PM 7.3 °F 0.5 °F -13.5 °F 38% 30.36 in - ESE 3.5 mph - N/A   Unknown
2:00 PM 8.6 °F 0.1 °F -11.2 °F 40% 30.34 in - South 4.6 mph - N/A   Unknown
3:00 PM 9.3 °F 1.0 °F -10.8 °F 40% 30.33 in - SSE 4.6 mph - N/A   Unknown
4:00 PM 10.0 °F 3.6 °F -10.3 °F 40% 30.34 in - ESE 3.5 mph - N/A   Unknown
5:00 PM 6.4 °F -2.4 °F -9.9 °F 47% 30.35 in - ENE 4.6 mph - N/A   Unknown
6:00 PM 3.0 °F -8.0 °F -6.3 °F 65% 30.39 in - NE 5.8 mph - N/A   Unknown
7:00 PM 0.7 °F -10.7 °F -6.7 °F 71% 30.42 in - NE 5.8 mph - N/A   Unknown
8:00 PM -3.3 °F - -6.7 °F 85% 30.45 in - NE 2.3 mph - N/A   Unknown
9:00 PM -5.3 °F -13.8 °F -11.0 °F 76% 30.45 in - North 3.5 mph - N/A   Unknown
10:00 PM -11.6 °F - -15.9 °F 81% 30.45 in - ENE 2.3 mph - N/A   Unknown
11:00 PM -11.2 °F -20.6 °F -15.3 °F 82% 30.42 in - NE 3.5 mph - N/A   Unknown